Weather History for K2W6 - November, 2013

Change the Weather History Date:

Monday, November 18, 2013

  Actual Average (KNHK) Record (KNHK)
Temperature  
Mean Temperature 60 °F -  
Max Temperature 68 °F 58 °F 74 °F (1979)
Min Temperature 51 °F 39 °F 23 °F (2014)
Degree Days  
Heating Degree Days 4    
Growing Degree Days 10 (Base 50)    
Moisture  
Dew Point 42 °F    
Average Humidity 58    
Maximum Humidity 94    
Minimum Humidity 24    
Precipitation  
Precipitation 0.00 in - - ()
Sea Level Pressure  
Sea Level Pressure 29.81 in    
Wind  
Wind Speed 7 mph (WSW)    
Max Wind Speed 18 mph    
Max Gust Speed 24 mph    
Visibility 10 miles    
Events      
Averages and records for this station are not official NWS values.
T = Trace of Precipitation, MM = Missing Value Source: NWS Daily Summary

Daily Weather History Graph

Daily Weather History Graph

Search for Another Location

Airport or City:

Trip Planner

Search our weather history database for the weather conditions in past years. The results will help you decide how hot, cold, wet, or windy it might be!

Date:

Astronomy

Nov. 18, 2013 Rise Set
Actual Time 6:51 AM EST 4:51 PM EST
Civil Twilight 6:22 AM EST 5:19 PM EST
Nautical Twilight 5:50 AM EST 5:52 PM EST
Astronomical Twilight 5:19 AM EST 6:23 PM EST
Moon 5:52 PM EST (11/18) 7:37 AM EST (11/18)
Length of Visible Light 10h 57m
Length of Day
10h 00m
Full, 99% of the Moon is Illuminated
Nov 18
Full
Nov 25
Last Quarter
Dec 2
New
Dec 9
First Quarter
Dec 17
Full

Hourly Weather History & Observations

Time (EST) Temp. Dew Point Humidity Pressure Visibility Wind Dir Wind Speed Gust Speed Precip Events Conditions
12:00 AM 62.6 °F 59.0 °F 88% 29.82 in 10.0 mi South 8.1 mph - N/A   Overcast
12:20 AM 62.6 °F 59.0 °F 88% 29.81 in 10.0 mi South 6.9 mph - N/A   Overcast
12:40 AM 62.6 °F 59.0 °F 88% 29.79 in 10.0 mi SSW 5.8 mph - N/A   Overcast
1:00 AM 62.6 °F 59.0 °F 88% 29.78 in 10.0 mi South 8.1 mph - N/A   Overcast
1:20 AM 62.6 °F 60.8 °F 94% 29.77 in 10.0 mi SSW 6.9 mph - N/A   Overcast
1:40 AM 62.6 °F 60.8 °F 94% 29.76 in 10.0 mi SSW 9.2 mph 16.1 mph N/A   Overcast
2:00 AM 64.4 °F 60.8 °F 88% 29.76 in 10.0 mi SSW 9.2 mph - N/A   Overcast
2:20 AM 64.4 °F 60.8 °F 88% 29.75 in 10.0 mi SSW 9.2 mph 16.1 mph N/A   Overcast
2:40 AM 64.4 °F 60.8 °F 88% 29.74 in 10.0 mi SSW 9.2 mph 17.3 mph N/A   Overcast
3:00 AM 64.4 °F 62.6 °F 94% 29.74 in 10.0 mi SSW 10.4 mph 17.3 mph N/A   Overcast
3:20 AM 64.4 °F 62.6 °F 94% 29.73 in 10.0 mi SSW 10.4 mph 17.3 mph N/A   Overcast
3:40 AM 66.2 °F 62.6 °F 88% 29.74 in 10.0 mi SW 10.4 mph - N/A   Overcast
4:00 AM 64.4 °F 62.6 °F 94% 29.75 in 5.0 mi West 9.2 mph - N/A   Overcast
4:20 AM 55.4 °F 51.8 °F 88% 29.79 in 3.0 mi West 11.5 mph 20.7 mph N/A   Overcast
4:40 AM 55.4 °F 51.8 °F 88% 29.78 in 10.0 mi West 8.1 mph - N/A   Overcast
5:00 AM 55.4 °F 51.8 °F 88% 29.78 in 10.0 mi Calm Calm - N/A   Overcast
5:20 AM 55.4 °F 51.8 °F 88% 29.78 in 10.0 mi Calm Calm - N/A   Overcast
5:40 AM 55.4 °F 51.8 °F 88% 29.78 in 10.0 mi Calm Calm - N/A   Overcast
6:00 AM 53.6 °F 51.8 °F 94% 29.79 in 10.0 mi Calm Calm - N/A   Mostly Cloudy
6:20 AM 53.6 °F 51.8 °F 94% 29.80 in 10.0 mi Calm Calm - N/A   Overcast
6:40 AM 53.6 °F 51.8 °F 94% 29.80 in 10.0 mi Calm Calm - N/A   Overcast
7:00 AM 53.6 °F 51.8 °F 94% 29.81 in 10.0 mi SSW 3.5 mph - N/A   Overcast
7:21 AM 55.4 °F 51.8 °F 88% 29.81 in 10.0 mi Calm Calm - N/A   Overcast
7:41 AM 55.4 °F 51.8 °F 88% 29.81 in 10.0 mi Calm Calm - N/A   Overcast
8:01 AM 55.4 °F 53.6 °F 94% 29.82 in 10.0 mi Calm Calm - N/A   Overcast
8:21 AM 55.4 °F 53.6 °F 94% 29.83 in 10.0 mi SSW 3.5 mph - N/A   Overcast
8:41 AM 57.2 °F 53.6 °F 88% 29.83 in 10.0 mi Calm Calm - N/A   Scattered Clouds
9:01 AM 59.0 °F 53.6 °F 82% 29.83 in 10.0 mi Calm Calm - N/A   Mostly Cloudy
9:21 AM 59.0 °F 55.4 °F 88% 29.82 in 10.0 mi Calm Calm - N/A   Scattered Clouds
9:41 AM 60.8 °F 53.6 °F 77% 29.82 in 10.0 mi WSW 6.9 mph - N/A   Mostly Cloudy
10:01 AM 62.6 °F 51.8 °F 68% 29.82 in 10.0 mi WSW 9.2 mph - N/A   Scattered Clouds
10:21 AM 64.4 °F 51.8 °F 64% 29.81 in 10.0 mi West 10.4 mph - N/A   Clear
10:41 AM 64.4 °F 46.4 °F 52% 29.81 in 10.0 mi WSW 8.1 mph - N/A   Clear
11:01 AM 66.2 °F 44.6 °F 46% 29.79 in 10.0 mi WSW 8.1 mph - N/A   Clear
11:21 AM 66.2 °F 41.0 °F 40% 29.78 in 10.0 mi WSW 13.8 mph - N/A   Clear
11:41 AM 68.0 °F 37.4 °F 33% 29.77 in 10.0 mi West 16.1 mph - N/A   Clear
12:01 PM 68.0 °F 39.2 °F 35% 29.77 in 10.0 mi WSW 12.7 mph 19.6 mph N/A   Clear
12:21 PM 68.0 °F 35.6 °F 30% 29.77 in 10.0 mi West 18.4 mph 23.0 mph N/A   Clear
12:41 PM 68.0 °F 32.0 °F 26% 29.76 in 10.0 mi West 12.7 mph 21.9 mph N/A   Clear
1:01 PM 68.0 °F 33.8 °F 28% 29.76 in 10.0 mi West 18.4 mph 24.2 mph N/A   Clear
1:21 PM 68.0 °F 33.8 °F 28% 29.76 in 10.0 mi West 16.1 mph 19.6 mph N/A   Clear
1:41 PM 68.0 °F 33.8 °F 28% 29.76 in 10.0 mi West 11.5 mph 19.6 mph N/A   Clear
2:01 PM 68.0 °F 33.8 °F 28% 29.75 in 10.0 mi WSW 12.7 mph - N/A   Clear
2:21 PM 68.0 °F 30.2 °F 24% 29.75 in 10.0 mi West 11.5 mph 19.6 mph N/A   Clear
2:41 PM 68.0 °F 32.0 °F 26% 29.75 in 10.0 mi West 15.0 mph 20.7 mph N/A   Clear
3:01 PM 68.0 °F 30.2 °F 24% 29.76 in 10.0 mi West 10.4 mph 24.2 mph N/A   Clear
3:21 PM 68.0 °F 30.2 °F 24% 29.76 in 10.0 mi West 13.8 mph - N/A   Clear
3:41 PM 68.0 °F 30.2 °F 24% 29.76 in 10.0 mi West 10.4 mph 17.3 mph N/A   Clear
4:02 PM 66.2 °F 30.2 °F 26% 29.77 in 10.0 mi West 10.4 mph 16.1 mph N/A   Clear
4:22 PM 64.4 °F 30.2 °F 28% 29.77 in 10.0 mi West 6.9 mph - N/A   Clear
4:42 PM 62.6 °F 30.2 °F 30% 29.78 in 10.0 mi West 4.6 mph - N/A   Clear
5:02 PM 60.8 °F 32.0 °F 34% 29.79 in 10.0 mi WSW 5.8 mph - N/A   Clear
5:22 PM 59.0 °F 32.0 °F 36% 29.80 in 10.0 mi WSW 4.6 mph - N/A   Clear
5:42 PM 57.2 °F 32.0 °F 38% 29.80 in 10.0 mi SW 4.6 mph - N/A   Clear
6:02 PM 57.2 °F 32.0 °F 38% 29.81 in 10.0 mi West 3.5 mph - N/A   Clear
6:22 PM 55.4 °F 33.8 °F 44% 29.82 in 10.0 mi West 4.6 mph - N/A   Clear
6:42 PM 53.6 °F 33.8 °F 47% 29.83 in 10.0 mi West 3.5 mph - N/A   Clear
7:02 PM 53.6 °F 33.8 °F 47% 29.83 in 10.0 mi Calm Calm - N/A   Clear
7:22 PM 55.4 °F 32.0 °F 41% 29.85 in 10.0 mi WNW 3.5 mph - N/A   Clear
7:42 PM 55.4 °F 30.2 °F 38% 29.86 in 10.0 mi WNW 4.6 mph - N/A   Clear
8:02 PM 57.2 °F 26.6 °F 31% 29.86 in 10.0 mi WNW 8.1 mph - N/A   Clear
8:22 PM 55.4 °F 26.6 °F 33% 29.87 in 10.0 mi WNW 5.8 mph - N/A   Clear
8:42 PM 55.4 °F 26.6 °F 33% 29.88 in 10.0 mi WNW 3.5 mph - N/A   Clear
9:02 PM 53.6 °F 26.6 °F 35% 29.88 in 10.0 mi WNW 3.5 mph - N/A   Clear
9:22 PM 55.4 °F 26.6 °F 33% 29.89 in 10.0 mi WNW 6.9 mph - N/A   Clear
9:42 PM 53.6 °F 26.6 °F 35% 29.89 in 10.0 mi WNW 8.1 mph - N/A   Clear
10:02 PM 53.6 °F 23.0 °F 30% 29.89 in 10.0 mi NW 9.2 mph 16.1 mph N/A   Clear
10:22 PM 53.6 °F 21.2 °F 28% 29.90 in 10.0 mi WNW 10.4 mph 18.4 mph N/A   Clear
10:42 PM 53.6 °F 23.0 °F 30% 29.91 in 10.0 mi WNW 9.2 mph 17.3 mph N/A   Clear
11:02 PM 53.6 °F 23.0 °F 30% 29.92 in 10.0 mi WNW 9.2 mph 19.6 mph N/A   Clear
11:22 PM 53.6 °F 23.0 °F 30% 29.94 in 10.0 mi WNW 6.9 mph - N/A   Clear
11:42 PM 51.8 °F 23.0 °F 33% 29.93 in 10.0 mi NW 4.6 mph - N/A   Clear